Wind_Speed
21 21 23 23 23 22 21 20 19 19 17 16 16 15 15 15 15 14 13 13 13 14 14 14 14 13 13 15 17 18 19 19 19 18 17 17 18 19 20 21 21 22 22 22 23 23 23 23 24 25 27 28 28 29 29 30 30 30 31 32 33 34 34 35 36 36 36 36 36 36 35 35 35 35 37 38 40 42 44 44 44 45 46 47 47
21 22 24 24 23 23 21 20 19 18 17 17 16 16 15 15 15 14 14 14 14 14 15 15 15 15 16 18 19 20 20 19 18 17 17 17 17 18 19 20 22 22 23 23 24 24 25 26 26 27 28 29 30 30 31 31 32 32 32 33 34 35 35 36 37 37 37 36 37 37 36 36 37 37 38 39 41 43 44 45 46 46 47 47 47
22 23 24 25 24 23 21 20 19 18 18 17 17 16 16 15 15 15 15 15 15 15 15 15 16 16 17 18 19 19 19 18 17 16 15 15 16 17 19 21 22 23 23 24 25 26 27 28 28 29 30 31 32 32 33 34 34 34 34 34 35 35 36 37 38 38 38 37 37 38 38 38 38 39 40 41 42 43 44 46 47 47 47 47 47
22 23 24 25 25 23 21 20 19 19 18 17 17 16 16 15 15 15 15 15 16 16 16 16 16 16 16 16 17 17 17 17 16 14 14 15 16 17 19 21 22 23 24 25 26 27 28 29 30 31 32 33 33 34 35 36 36 36 36 36 36 36 37 38 38 39 39 38 38 38 39 39 39 40 41 42 43 44 45 46 48 48 49 48 46
23 23 25 26 25 23 21 20 19 19 18 17 17 17 16 15 15 16 16 16 16 16 16 16 16 15 15 14 15 16 16 16 15 15 15 15 16 18 20 22 22 23 24 26 27 28 29 31 32 33 34 35 35 36 37 38 39 39 39 38 38 37 38 39 39 40 40 39 38 39 39 40 39 40 41 42 44 45 46 47 48 50 50 48 46
22 24 26 26 25 23 21 20 19 18 18 17 17 18 16 15 16 17 17 17 17 17 17 16 15 14 13 13 14 15 16 16 16 16 16 16 18 20 22 22 23 24 25 26 27 29 30 32 34 35 36 37 37 38 39 40 41 41 41 41 40 39 39 40 40 41 41 39 39 39 40 41 41 41 42 43 44 45 47 48 49 51 51 48 44
23 25 26 26 25 23 21 20 19 18 18 17 18 18 17 17 17 17 17 18 18 18 17 16 14 12 12 13 14 15 15 16 16 17 17 18 19 21 23 24 24 25 26 27 28 30 32 33 35 36 37 38 39 40 41 42 43 43 43 43 42 41 41 41 41 42 42 41 40 40 41 41 42 42 43 44 44 45 46 48 51 52 50 46 43
24 25 26 26 25 23 21 20 19 18 17 17 18 19 18 18 18 17 17 18 19 19 17 15 13 12 12 13 14 15 15 16 17 18 18 20 21 23 24 25 26 27 28 28 29 31 33 35 36 38 39 40 41 41 42 43 43 44 45 45 44 43 42 42 42 42 42 41 40 40 41 42 42 43 44 45 46 46 47 49 51 50 47 45 42
25 26 27 26 25 22 21 20 18 17 17 17 18 19 20 19 19 17 18 19 20 19 17 15 13 12 12 13 14 15 16 17 18 19 20 21 22 24 26 27 27 28 29 30 32 34 35 36 38 39 40 41 42 42 42 43 44 45 46 47 46 45 44 44 42 42 43 42 41 41 41 42 42 43 44 45 46 48 49 50 49 48 46 44 42
26 27 27 26 24 22 21 19 18 17 17 18 19 20 20 20 19 18 18 20 20 19 17 15 14 14 14 15 16 17 17 18 19 21 22 23 24 25 27 28 29 30 31 32 34 37 38 39 40 41 42 43 43 42 42 42 43 44 45 48 48 46 45 44 43 42 42 41 42 42 40 40 42 43 44 45 47 48 48 47 47 46 45 42 40
26 27 28 26 24 22 21 20 19 18 18 18 19 20 20 19 19 18 19 20 20 19 17 16 16 16 16 17 18 19 20 21 22 23 25 25 26 28 29 30 31 31 33 34 37 39 40 41 42 43 45 45 44 43 41 41 40 41 43 47 49 48 47 46 44 42 41 42 43 42 40 39 41 42 44 45 46 46 46 45 46 46 44 41 39
27 28 28 27 24 22 21 20 20 19 19 20 20 20 19 19 19 19 19 20 20 19 18 18 18 18 19 19 20 21 22 23 24 25 26 27 28 29 30 31 31 32 33 34 37 38 40 41 41 41 42 44 45 45 42 40 39 40 43 47 49 50 50 47 43 41 41 42 42 40 39 39 41 41 42 43 44 44 44 45 45 45 44 41 39
29 29 29 27 24 22 21 21 21 20 20 20 21 20 19 19 19 20 19 20 20 20 20 20 20 20 21 22 22 23 24 25 25 26 28 28 29 29 30 30 31 31 32 33 35 36 38 40 40 39 40 43 47 47 44 41 40 41 43 45 48 50 48 43 41 40 40 41 41 40 39 40 40 41 41 42 43 44 44 44 44 44 43 41 39
30 30 29 26 24 22 22 22 21 21 21 21 21 20 19 19 20 20 20 20 21 21 21 21 22 23 23 24 24 25 26 27 27 28 29 29 29 30 30 30 30 31 32 32 33 34 36 39 40 40 42 44 47 49 45 41 41 42 43 45 48 46 40 37 39 41 42 42 42 41 40 40 41 42 43 43 43 43 43 43 43 44 43 41 40
32 30 28 26 24 23 22 22 22 22 22 22 21 19 19 20 20 21 21 21 21 22 22 23 24 25 26 26 26 27 27 28 29 30 30 30 30 30 31 31 31 31 30 30 31 33 35 36 36 36 38 39 42 45 42 40 42 44 44 46 46 40 34 36 40 42 43 43 43 41 40 40 41 43 43 42 42 42 42 42 42 43 42 41 41
32 30 28 26 24 23 23 23 23 22 22 21 20 18 19 20 21 21 22 22 23 24 24 25 26 27 28 28 28 28 28 28 30 31 31 31 31 30 30 30 30 30 30 31 32 33 34 35 35 35 36 37 38 38 37 38 41 43 44 44 42 37 36 39 41 41 42 42 41 40 40 41 42 43 42 41 41 42 42 42 42 42 41 41 40
31 29 27 26 25 24 24 23 23 23 22 21 19 19 19 20 20 21 22 24 25 26 27 27 28 29 30 30 29 29 29 30 31 31 31 31 31 30 29 29 30 31 32 33 34 34 36 37 37 36 36 37 36 36 35 37 40 42 43 42 40 38 38 39 40 41 42 41 40 41 42 43 43 42 40 40 41 42 43 43 43 42 41 40 39
30 29 27 26 25 25 25 24 24 23 22 21 21 20 20 20 21 22 24 25 27 28 29 29 30 31 31 31 31 31 31 31 31 32 32 31 30 30 30 31 33 34 35 36 36 36 37 38 38 36 36 37 37 37 37 38 41 41 40 38 37 37 38 40 41 42 41 40 40 41 43 43 42 40 39 40 41 43 44 44 43 42 41 40 40
29 28 27 26 26 26 26 25 24 23 21 21 22 23 22 21 21 23 25 27 28 29 30 30 31 32 32 32 32 32 31 31 31 32 31 30 30 31 33 35 36 37 37 37 37 38 39 39 39 38 37 37 37 38 38 39 40 39 37 35 35 37 39 40 41 40 39 39 39 40 42 42 40 39 40 41 41 43 44 45 45 44 42 41 40
30 29 28 28 28 27 26 24 23 23 22 21 21 23 24 23 22 24 26 28 28 29 30 31 32 33 33 33 33 32 31 30 31 31 31 31 31 33 36 37 39 39 37 36 36 38 39 40 39 38 38 38 38 39 39 38 38 37 37 37 38 39 40 39 38 37 37 37 38 40 40 40 40 41 42 42 41 42 44 45 46 44 42 41 40
32 31 30 30 29 27 26 24 24 24 22 20 20 21 22 24 25 26 27 28 29 30 31 31 32 32 32 32 32 32 31 30 30 31 32 33 34 36 38 39 40 38 35 34 36 37 39 39 39 38 38 39 39 40 39 37 38 39 39 40 40 40 39 36 34 35 36 37 38 39 38 37 39 41 41 41 41 43 44 46 46 43 41 40 39
33 33 32 30 29 28 27 26 25 23 21 20 21 21 22 25 26 27 28 29 30 31 30 30 30 30 30 31 31 31 30 30 31 32 33 35 37 39 40 40 39 37 35 35 36 36 37 38 38 37 39 39 39 39 39 38 39 40 40 40 39 38 38 36 36 37 38 38 38 36 35 36 39 40 39 40 42 43 44 45 45 42 41 40 38
35 34 32 30 29 28 28 27 24 22 21 22 23 24 25 26 27 28 30 30 30 29 28 27 27 28 29 29 30 30 31 32 33 34 36 38 39 40 40 40 39 38 37 36 35 35 36 36 37 38 39 39 39 39 39 39 39 39 39 38 38 38 39 39 39 39 39 39 38 37 37 39 41 40 39 40 42 42 43 44 44 43 42 41 38
35 33 31 30 30 30 30 27 24 22 23 24 25 26 27 28 28 29 30 30 29 28 27 27 27 27 28 29 30 32 33 35 36 37 39 41 40 40 40 40 39 38 35 32 32 34 36 36 37 38 38 38 38 38 39 40 40 40 40 40 39 39 39 40 40 40 41 42 42 41 41 43 42 40 38 39 40 40 40 41 42 42 43 41 38
35 32 30 29 29 30 30 26 24 23 25 26 26 27 28 28 28 29 29 29 28 27 27 27 28 28 29 31 33 34 35 37 39 40 41 42 41 40 39 39 39 37 34 33 35 37 36 36 36 37 38 38 39 39 39 40 40 41 42 42 41 40 40 41 41 41 42 42 42 43 43 42 40 38 38 39 39 38 39 40 41 43 43 41 37
34 31 30 29 29 29 28 25 24 24 25 26 26 26 27 27 27 28 28 28 28 28 29 29 30 30 32 34 35 37 37 38 40 42 42 41 40 38 37 37 37 37 36 36 38 38 36 35 36 37 39 39 39 39 40 40 39 40 41 41 41 41 41 41 41 40 41 41 41 41 41 39 37 37 38 39 38 38 39 39 41 42 43 41 38
32 29 29 28 29 28 27 25 24 25 25 25 25 25 26 27 28 28 29 30 30 31 32 32 32 33 35 36 38 39 39 40 41 41 41 39 37 35 33 34 34 35 36 37 37 37 36 36 37 38 39 39 39 39 39 39 38 38 39 40 40 40 40 39 39 40 40 40 39 39 39 37 37 38 39 39 39 39 39 39 40 41 42 41 38
31 29 28 27 27 27 26 25 24 24 24 24 25 25 26 28 29 30 31 32 33 34 34 35 36 36 37 38 39 39 39 39 39 39 38 36 34 32 31 32 32 34 35 36 37 37 36 36 37 38 39 39 39 39 39 39 38 37 38 38 39 39 39 39 39 39 40 39 39 38 38 37 38 40 40 40 40 40 40 40 40 41 42 41 39
30 29 27 26 25 25 24 24 24 24 24 24 26 27 29 30 31 32 34 35 36 36 36 37 37 38 38 38 38 38 37 37 36 36 36 34 32 31 31 32 33 34 36 37 37 37 36 36 36 37 38 38 38 38 38 38 38 37 37 38 38 39 39 40 40 40 40 40 40 39 38 38 40 41 41 41 41 40 39 40 40 41 41 41 40
28 27 25 25 24 23 23 24 24 24 25 27 29 30 32 33 33 34 35 36 36 36 37 37 37 37 37 37 36 35 35 34 34 34 34 33 32 31 32 33 34 35 36 37 37 36 35 35 35 36 37 37 37 37 37 38 38 38 38 39 39 39 40 41 41 41 41 40 40 40 40 40 40 41 41 40 40 39 39 40 41 40 39 39 39
26 25 24 24 24 23 24 24 25 27 28 30 31 32 33 33 33 34 34 35 36 36 37 37 37 37 36 35 34 33 32 33 33 33 33 33 32 32 33 34 35 35 36 36 36 35 34 35 35 36 36 36 37 38 38 38 39 39 39 40 40 40 41 42 42 42 41 40 40 41 41 41 41 41 41 40 40 40 40 41 41 40 38 37 38
24 24 24 24 24 24 25 26 27 28 30 31 31 32 32 32 32 33 34 35 36 36 36 36 36 35 33 32 32 32 32 32 33 34 34 34 34 34 34 34 34 35 35 35 35 35 35 35 36 36 36 37 38 38 39 39 40 40 40 40 40 41 42 42 43 42 41 41 41 41 42 41 40 41 41 41 41 41 41 41 41 39 37 36 36
25 25 25 24 24 25 25 26 27 28 29 30 31 31 31 32 33 34 35 35 35 35 35 34 34 32 32 31 32 32 32 33 34 35 35 35 35 35 34 34 34 35 35 35 35 36 36 36 36 36 37 38 39 39 40 40 40 40 41 41 41 42 42 43 43 42 42 41 41 41 41 41 40 41 43 43 42 41 42 41 40 38 36 35 35
24 24 23 23 23 24 25 26 27 28 29 30 30 31 33 34 34 34 34 34 33 32 32 32 32 31 31 32 33 33 33 34 35 35 36 36 35 35 34 34 35 35 35 35 36 36 37 37 37 37 38 39 39 40 41 41 41 41 41 42 42 42 43 43 43 42 42 42 42 42 41 41 41 42 43 43 41 41 41 41 39 37 35 34 33
23 22 22 23 23 24 25 26 27 28 29 30 31 32 33 34 34 34 34 33 32 30 30 31 32 32 32 32 33 33 33 34 35 35 35 35 35 34 34 34 35 35 36 36 36 37 37 37 37 37 38 39 40 41 41 41 42 42 43 43 43 43 43 43 43 42 41 41 41 40 40 40 41 43 43 43 42 41 41 41 40 37 34 33 32
24 23 24 24 25 26 26 27 28 29 30 31 32 33 34 35 35 34 33 31 29 29 30 32 33 32 32 32 33 33 34 34 34 34 34 34 35 35 34 34 34 35 35 36 36 36 36 36 37 38 39 40 41 42 42 42 43 44 44 45 45 44 44 43 42 41 40 38 37 38 39 41 43 45 45 44 43 43 42 42 40 37 35 33 32
27 27 27 27 27 27 28 29 29 30 31 31 31 32 33 35 34 32 29 28 28 30 32 33 33 33 33 33 33 33 33 33 33 33 34 34 34 34 34 34 34 35 36 36 37 37 37 38 39 40 41 41 42 41 42 42 43 43 43 44 43 41 39 39 39 39 38 36 37 39 41 43 45 45 45 44 43 43 43 42 40 38 36 34 32
29 28 28 29 29 30 30 31 31 32 32 31 30 30 32 33 33 32 32 32 32 33 33 33 34 34 34 34 33 32 33 33 32 33 33 33 33 34 34 34 34 35 36 37 37 38 39 40 41 41 42 42 41 41 41 41 41 41 41 40 38 36 35 36 38 39 38 37 38 39 40 41 42 42 42 41 41 41 42 42 41 39 37 35 33
29 30 30 30 31 32 32 32 32 32 32 31 30 30 32 34 35 35 35 34 34 33 34 34 34 34 34 33 32 32 32 32 32 32 32 33 33 34 35 35 35 36 36 37 38 39 39 40 40 40 39 40 40 40 41 41 40 38 37 36 35 34 33 35 38 39 38 37 37 37 38 39 39 40 40 39 39 40 41 42 42 40 38 36 34
30 31 31 32 32 33 32 32 31 31 30 30 31 31 33 34 35 35 34 34 33 33 33 34 33 33 32 32 32 31 31 31 31 32 33 33 34 35 35 36 36 37 37 38 38 37 36 36 37 37 37 38 39 39 39 39 37 35 33 33 33 32 33 34 36 37 37 37 37 37 36 36 37 37 37 38 38 40 41 41 41 40 39 37 35
31 31 32 32 32 32 31 31 30 31 31 31 32 32 33 33 33 33 33 32 32 32 32 32 32 32 32 31 31 31 31 31 32 33 34 34 34 35 35 36 37 37 37 35 34 33 33 33 34 34 34 34 34 33 33 32 31 31 31 31 32 32 33 35 37 38 39 38 37 36 36 37 37 38 38 39 39 39 40 39 38 38 38 37 35
30 30 30 30 30 31 31 31 32 32 32 32 32 32 32 32 32 32 31 31 32 32 32 32 32 32 31 31 31 31 32 33 34 34 34 34 35 35 36 36 35 34 33 31 30 30 30 30 29 29 29 29 29 29 29 28 28 28 29 29 30 31 32 33 35 36 37 37 36 36 37 37 37 38 39 39 40 40 40 39 37 36 36 35 35
28 29 29 30 31 31 31 31 32 32 32 32 32 32 31 31 31 31 31 31 32 32 32 32 32 31 31 31 31 32 33 34 35 35 35 35 35 35 34 33 31 30 29 28 27 27 26 26 26 26 27 27 28 28 28 28 28 28 28 29 29 30 30 31 32 32 33 33 34 36 37 37 36 36 37 39 39 39 38 38 37 36 35 34 33
29 30 30 30 30 29 29 29 29 29 30 30 30 30 30 30 30 31 31 31 31 31 31 31 31 31 32 32 33 34 34 35 35 35 35 35 34 32 30 29 28 27 26 25 24 24 24 25 25 26 27 27 28 28 28 28 29 29 30 30 31 31 32 32 33 33 33 33 33 35 36 36 35 35 36 36 35 34 33 34 34 33 33 33 33
30 29 29 27 26 26 26 26 26 27 28 29 29 29 30 30 30 31 31 30 30 30 30 31 31 32 32 33 34 34 34 34 35 35 34 32 30 29 28 27 26 24 23 23 23 24 25 25 26 26 27 27 28 28 29 29 30 31 32 32 33 33 33 34 34 34 34 33 33 33 33 33 33 33 33 32 31 30 30 30 31 31 31 32 32
27 26 25 24 23 23 23 24 25 26 27 28 29 29 30 30 30 30 29 29 30 30 31 31 31 32 33 33 34 34 34 34 34 32 30 29 28 28 27 25 24 23 22 23 24 25 26 26 27 27 28 28 29 29 30 31 32 32 32 32 32 32 33 33 33 33 33 33 32 32 32 31 31 31 31 31 29 29 29 29 29 30 30 31 31
25 24 24 23 23 23 23 24 25 26 27 27 28 28 28 28 28 28 29 29 30 31 31 31 31 32 33 34 34 34 33 32 31 29 28 28 27 27 25 24 23 23 24 25 26 27 27 28 28 29 29 30 31 31 32 33 34 34 34 33 33 33 33 33 33 33 33 33 32 31 31 31 30 30 30 30 29 28 28 27 28 28 29 29 30
23 23 22 22 22 22 22 23 24 24 25 26 26 27 27 27 27 28 29 29 30 30 31 31 32 33 33 34 34 33 32 30 28 27 27 27 27 26 25 24 24 25 26 27 28 28 29 29 30 30 31 32 32 33 34 35 35 35 35 35 34 34 34 34 35 34 34 33 32 31 30 30 30 30 30 29 29 28 27 27 27 27 27 27 28
23 22 21 21 21 22 23 24 24 25 25 25 25 26 26 27 28 28 29 29 30 30 31 32 32 33 33 33 33 32 30 28 27 27 27 27 26 26 25 25 26 26 28 28 29 30 30 31 31 32 32 33 34 35 35 36 36 36 36 36 36 36 36 36 36 36 35 34 33 32 30 29 28 28 28 29 28 27 26 26 26 26 26 26 27
23 23 22 22 22 23 24 24 25 25 25 25 25 25 26 27 28 29 29 30 31 31 32 32 33 33 32 32 31 30 29 28 28 27 27 26 26 25 26 26 27 28 29 29 30 31 32 32 32 33 33 34 35 36 36 37 37 38 38 38 38 39 38 38 37 36 35 34 33 32 30 29 28 27 27 27 26 26 25 25 25 26 26 26 26
23 23 23 23 24 24 24 24 24 25 25 26 26 26 27 28 29 30 30 31 31 32 32 32 31 31 30 29 29 28 28 28 27 27 26 25 25 25 26 27 28 29 30 31 32 32 33 33 33 34 35 36 37 37 38 39 39 40 41 41 41 40 39 38 37 36 35 34 32 31 30 29 28 27 26 26 25 25 25 25 25 25 25 25 26
Wind_Direction
238 236 235 235 238 241 244 246 246 245 245 247 250 252 254 257 264 272 279 283 284 283 280 277 275 273 271 271 270 267 264 263 264 265 264 262 260 257 258 263 268 272 274 275 276 279 283 288 292 296 299 302 304 304 304 304 306 308 310 311 312 313 313 313 314 315 317 318 319 319 319 320 320 320 322 323 326 329 329 328 327 326 326 326 327
235 234 233 234 237 240 242 245 246 246 247 249 252 252 254 257 262 270 278 282 284 283 281 279 276 273 271 270 269 266 265 265 266 264 260 257 256 258 263 267 271 274 275 275 277 280 283 286 290 293 296 299 301 302 303 302 303 305 307 309 310 311 312 312 312 313 314 316 317 318 318 319 319 319 320 321 324 327 329 329 328 327 325 324 325
234 233 232 233 236 239 242 244 246 248 249 251 252 253 254 257 263 270 276 281 283 283 284 285 282 277 272 269 267 265 265 265 264 261 256 254 256 262 268 272 275 276 277 279 281 282 283 286 288 291 293 296 298 300 301 300 301 302 304 306 308 310 310 310 310 311 312 313 315 316 317 318 319 319 319 319 320 323 326 328 328 328 326 323 323
232 232 232 234 237 239 242 244 247 250 251 252 252 253 252 255 263 270 275 279 282 284 287 288 286 280 271 265 263 262 262 262 260 256 253 254 259 267 272 275 279 281 281 282 283 284 285 286 288 289 291 293 296 298 298 298 299 300 301 303 305 307 308 308 308 309 310 311 312 314 315 316 318 318 319 320 320 321 323 325 327 327 325 323 323
231 232 232 234 238 240 242 245 248 250 252 253 252 252 251 252 260 268 272 276 280 284 287 289 287 279 267 259 256 256 257 256 254 252 252 255 262 269 274 278 281 283 284 284 284 284 285 286 286 288 289 291 293 294 295 296 298 298 299 300 301 303 305 306 307 307 308 309 311 311 312 314 316 317 318 320 321 322 323 324 325 326 324 323 323
230 232 233 235 238 241 243 246 248 250 253 253 252 251 249 250 258 265 270 275 280 283 286 288 285 273 259 252 250 251 252 252 251 251 253 258 264 270 274 278 282 283 283 283 284 284 284 284 285 287 288 290 291 291 292 294 296 297 297 298 298 300 302 304 305 306 306 307 309 309 310 311 313 315 316 318 319 321 323 324 325 325 325 324 323
229 231 233 236 239 242 244 246 248 251 254 254 250 248 247 250 256 263 269 274 278 280 282 284 279 265 253 249 249 250 252 252 254 256 258 263 267 271 275 279 282 283 283 284 284 283 283 284 285 286 287 288 289 290 292 294 295 295 296 296 297 298 299 301 303 304 304 305 307 308 308 309 312 314 315 316 318 319 322 324 325 325 325 325 323
228 231 234 236 239 243 244 246 250 252 255 253 248 245 246 250 255 261 268 273 275 276 278 278 273 261 253 251 252 254 255 256 259 262 265 267 270 273 277 280 282 283 284 285 285 283 283 284 285 285 286 287 289 291 292 293 294 295 295 296 296 296 297 298 300 302 302 303 305 307 307 308 310 312 313 315 317 319 321 323 324 324 325 325 323
226 230 233 236 239 242 243 246 250 252 253 251 246 244 247 251 256 261 266 270 271 272 273 272 269 261 257 255 256 258 260 262 265 268 268 270 272 275 278 281 283 284 285 287 286 285 285 285 286 286 287 287 289 291 292 293 293 295 296 296 295 295 295 295 297 299 301 302 304 305 306 307 309 311 312 314 317 318 320 322 323 323 323 323 322
223 228 232 235 238 240 242 245 248 250 251 249 245 245 248 253 257 261 264 266 267 267 267 268 267 264 261 261 262 264 266 268 270 271 271 272 274 276 278 280 283 285 286 287 287 286 287 287 287 287 286 287 288 290 291 292 293 296 298 298 296 295 292 292 295 297 299 301 302 302 304 307 309 310 312 314 316 317 319 321 321 322 322 321 320
222 227 231 234 236 238 241 244 247 248 249 247 245 245 247 253 258 261 261 262 262 261 262 264 265 265 266 267 268 269 270 271 272 273 273 274 275 277 279 281 284 286 287 287 287 288 288 288 288 288 288 288 289 289 289 289 292 297 299 300 300 297 292 291 293 296 298 300 300 300 303 307 309 310 312 314 315 316 318 319 320 321 320 319 319
222 226 229 232 235 237 240 244 247 247 246 246 245 245 247 252 258 259 258 258 258 257 258 261 263 265 267 269 270 271 272 273 274 275 276 277 279 281 283 285 287 288 289 290 291 291 289 288 290 291 290 292 292 289 287 287 290 296 300 303 304 301 293 289 291 295 298 299 299 299 303 307 309 310 312 313 314 316 318 319 320 320 319 317 318
222 225 229 231 234 237 240 244 247 247 245 245 245 245 247 252 255 256 255 255 255 255 256 259 262 264 266 268 270 272 273 275 276 277 278 280 282 284 286 288 290 291 292 293 295 295 291 288 289 290 293 295 294 291 288 287 288 295 301 302 304 303 294 287 289 295 297 297 297 298 301 305 308 309 309 310 313 315 317 318 320 319 317 316 317
223 226 229 231 233 236 240 244 246 246 246 246 246 245 247 251 254 254 254 254 255 256 258 259 262 264 266 268 270 271 273 275 277 278 279 281 283 285 286 288 289 291 292 294 296 298 294 289 288 289 293 295 294 292 291 289 289 294 297 298 300 300 293 287 291 296 296 295 295 297 301 305 307 307 308 309 312 313 315 317 318 318 317 317 317
223 226 229 231 233 236 240 243 245 246 247 247 246 245 246 249 252 253 254 256 258 259 261 261 263 264 266 267 269 270 273 275 276 277 278 280 281 283 285 288 289 291 292 293 295 298 298 295 292 291 291 292 292 292 291 287 286 289 292 295 298 296 288 289 296 297 297 297 297 299 302 305 307 307 308 309 310 312 313 314 316 317 318 317 317
224 227 229 231 233 236 239 241 244 246 247 248 247 245 245 247 251 253 255 258 261 261 262 262 263 265 266 268 270 271 273 274 275 276 278 279 281 283 286 289 291 291 291 293 294 296 298 297 295 293 292 292 292 293 291 286 285 288 292 295 296 290 285 291 298 299 299 300 299 300 302 305 307 307 306 307 309 311 312 313 315 316 318 317 316
225 227 228 230 233 236 238 241 244 247 248 249 247 244 245 247 251 255 257 259 261 262 262 263 264 265 267 269 271 272 273 274 275 276 278 280 283 285 287 289 291 292 293 294 294 294 294 295 294 293 292 292 293 293 292 291 290 292 294 295 292 287 287 293 298 300 301 301 301 302 304 305 306 305 304 305 308 310 311 312 314 316 317 317 315
225 226 226 229 232 235 239 242 245 247 250 252 251 248 249 253 258 262 263 263 262 263 264 265 265 266 268 270 272 273 274 276 277 278 279 281 283 285 288 290 292 293 294 294 293 292 292 292 293 292 289 289 290 291 293 294 293 294 296 296 292 290 292 295 298 300 301 302 303 304 305 306 305 304 303 304 307 310 310 311 312 314 316 316 315
224 225 226 228 232 236 240 244 247 250 254 258 259 255 253 257 265 269 268 266 265 265 266 267 267 268 269 271 272 274 276 277 278 278 279 280 282 285 289 291 292 292 292 292 291 291 291 292 292 291 289 288 289 291 293 294 294 296 297 297 294 293 294 296 298 300 302 304 305 306 307 308 307 305 304 305 308 311 311 311 312 312 314 316 315
223 223 224 228 234 239 244 247 249 252 254 259 264 261 255 255 265 273 271 267 265 266 266 266 267 268 270 271 273 274 276 276 276 277 279 281 284 287 289 290 290 290 289 289 290 290 290 289 290 290 290 290 291 292 294 294 294 295 295 294 294 295 296 299 302 304 305 305 306 306 306 307 306 304 304 306 310 312 313 313 312 312 314 316 315
222 223 226 232 238 243 247 249 249 251 255 261 268 269 262 260 267 273 271 267 265 264 264 264 265 267 269 271 273 274 275 275 275 277 279 283 286 288 289 290 290 289 288 288 289 288 287 287 288 289 290 291 292 293 294 293 292 292 293 294 296 297 299 302 304 304 304 303 302 302 302 303 303 303 304 308 312 314 315 314 313 313 315 316 314
223 226 230 235 241 246 249 250 251 255 260 264 267 269 266 265 267 268 266 265 265 265 265 265 266 268 271 272 273 274 275 275 276 278 282 285 288 289 291 292 291 290 290 290 289 286 284 284 287 290 291 293 293 294 293 292 291 292 294 296 297 299 301 302 303 302 301 300 300 300 301 302 300 300 305 311 314 315 315 314 313 313 315 315 313
225 228 232 237 242 246 249 251 253 258 262 265 267 268 266 265 264 263 263 264 266 267 268 268 269 270 271 272 273 274 275 277 279 283 285 287 288 290 292 292 291 290 290 290 288 286 284 285 289 292 293 293 293 293 293 292 292 294 295 296 298 301 302 303 302 300 298 297 297 298 297 296 296 299 307 313 314 314 314 314 312 312 314 315 313
227 230 234 239 243 247 249 251 256 260 262 265 266 265 264 263 262 262 263 265 267 269 270 270 270 270 271 273 274 276 278 281 284 286 286 287 289 291 291 291 290 291 289 287 286 287 288 289 291 293 292 292 292 292 292 292 293 293 294 296 300 302 302 301 301 299 298 298 298 297 295 293 294 300 307 310 311 312 313 312 311 311 313 314 312
228 232 236 240 244 247 248 250 255 259 262 264 264 263 263 263 262 264 265 266 268 268 268 268 269 270 273 274 276 278 280 283 285 286 287 288 290 290 290 289 289 290 288 286 288 290 290 291 292 292 292 291 292 292 292 293 293 293 294 297 300 301 301 301 301 301 300 300 300 300 298 296 295 299 304 306 308 310 311 310 309 310 311 312 310
229 231 234 237 242 246 248 250 255 259 260 262 262 262 262 263 264 265 266 266 266 266 267 268 270 273 275 277 278 281 284 285 286 287 288 289 289 289 289 289 289 289 289 289 290 292 293 293 293 292 292 292 292 292 293 293 294 295 296 297 299 300 301 302 302 302 301 301 302 303 303 300 297 298 301 304 305 307 308 309 309 309 310 310 307
228 230 232 236 241 245 249 253 256 257 258 259 260 261 262 263 264 264 264 264 265 266 268 271 273 275 278 280 282 284 286 286 287 287 287 288 289 289 289 288 288 289 289 289 290 292 293 294 292 292 292 293 293 294 294 295 295 296 297 299 300 300 301 302 302 301 301 302 303 304 304 303 300 300 300 301 302 303 305 307 308 308 308 307 304
229 232 235 239 242 246 251 254 254 255 256 258 259 260 260 260 260 260 262 263 266 268 271 274 276 277 279 281 283 284 285 286 286 286 287 288 289 290 289 289 288 288 288 289 290 291 292 292 291 292 293 294 295 296 296 296 297 298 299 299 300 301 301 302 301 299 299 301 303 303 303 303 302 300 299 299 299 301 304 306 307 307 306 305 303
231 235 238 241 243 246 249 250 251 253 255 256 257 257 257 258 258 260 263 265 268 272 274 277 278 280 281 282 283 284 285 285 286 286 288 290 291 291 292 291 290 290 289 290 290 291 291 291 291 292 294 295 296 297 297 298 299 300 300 300 300 301 301 300 299 297 297 299 300 301 301 299 298 298 297 297 298 300 303 306 307 307 307 305 304
234 238 241 242 243 243 244 245 248 251 252 253 254 254 255 257 259 262 266 269 272 275 276 278 280 281 282 283 284 285 286 286 287 288 290 292 293 293 293 292 291 291 290 291 292 292 292 292 293 294 295 296 297 297 298 298 299 300 300 299 299 299 299 298 297 297 297 298 298 299 298 297 296 295 295 295 297 299 303 306 307 307 307 304 303
236 239 240 240 240 240 242 245 248 249 249 251 253 255 258 261 264 267 270 272 274 275 277 279 281 282 284 285 286 287 287 288 289 290 292 293 293 293 292 292 291 291 291 292 292 292 292 293 295 296 296 297 297 297 298 298 299 299 298 298 298 298 298 297 297 297 298 298 298 297 297 296 295 293 292 293 296 298 301 304 305 305 304 302 301
235 237 237 238 239 240 243 245 247 249 252 256 258 262 265 268 270 272 273 275 276 278 279 281 282 284 286 287 288 288 289 290 291 291 292 293 292 292 292 292 292 292 292 292 292 292 293 294 295 295 295 296 297 297 297 298 298 298 298 298 298 298 297 297 297 298 299 299 298 297 296 295 293 291 290 292 295 298 301 303 303 303 302 300 299
234 236 237 238 239 241 244 246 249 253 257 260 264 268 271 272 273 275 277 278 280 281 282 282 284 286 287 287 288 288 289 290 290 291 292 292 292 292 293 293 293 293 293 293 293 293 294 295 295 295 295 296 296 297 297 297 297 298 299 299 298 298 298 297 298 298 298 298 298 297 296 293 291 290 290 292 295 298 299 301 301 300 299 298 298
235 236 237 240 242 245 248 251 255 258 262 266 269 273 274 275 277 278 279 281 282 283 283 284 286 288 287 287 287 287 287 288 289 290 291 291 292 293 293 294 294 294 294 294 293 293 294 294 294 295 296 296 297 298 298 298 298 298 298 298 297 297 296 296 297 297 298 298 298 297 295 293 291 290 292 294 296 297 298 298 299 297 296 295 295
234 236 238 242 245 248 253 257 262 266 269 273 276 277 278 280 280 280 280 280 281 281 283 286 288 287 286 285 286 286 286 287 288 289 290 290 292 293 293 294 294 294 293 293 293 293 294 294 294 296 297 298 298 298 298 298 298 297 297 296 296 295 295 295 295 295 296 298 299 298 296 293 292 293 295 297 297 297 297 297 297 295 293 292 291
235 237 240 244 247 252 257 262 266 270 273 276 279 280 281 281 281 280 280 279 278 280 283 286 286 285 285 285 285 285 286 287 288 288 289 290 291 292 293 293 293 293 292 293 293 294 294 294 295 297 298 299 299 299 298 297 297 296 296 296 295 295 294 294 294 295 297 301 302 300 296 293 294 297 298 299 298 297 297 297 296 294 292 289 288
237 239 242 246 250 255 260 265 270 274 277 279 281 283 285 285 284 283 281 279 280 282 284 285 284 284 284 285 285 286 287 287 287 288 289 289 290 291 292 292 293 293 293 293 294 295 295 295 296 298 298 299 299 298 297 296 296 296 296 296 297 298 299 300 301 301 302 301 299 295 294 295 297 299 299 299 299 298 297 296 296 294 291 288 287
237 241 246 250 255 260 264 269 274 277 279 280 280 280 281 282 282 281 280 280 281 282 282 282 282 283 284 284 285 285 286 286 287 287 288 289 290 292 292 293 293 293 294 295 296 297 297 298 298 299 299 299 299 298 297 297 297 297 297 298 300 302 303 303 302 301 300 298 296 296 298 300 301 301 300 299 299 297 296 295 294 292 289 287 285
243 248 252 257 261 265 269 273 276 277 278 279 277 275 274 275 277 278 278 278 280 280 280 281 281 282 283 283 284 285 285 285 286 287 289 290 292 292 293 294 294 294 295 295 296 297 298 298 298 299 299 299 300 300 300 299 299 299 299 301 302 301 299 298 297 297 298 298 298 299 300 301 301 302 302 301 299 297 295 295 294 291 288 285 283
251 254 258 261 265 269 272 275 276 276 276 276 277 276 276 276 276 276 276 277 279 279 280 280 280 280 281 282 283 284 285 286 288 289 290 291 292 293 293 294 294 294 295 295 296 298 298 298 298 299 300 301 301 301 301 301 302 302 302 303 303 301 298 297 297 297 297 298 298 300 301 301 303 304 304 303 301 298 296 295 294 292 288 285 284
259 262 264 267 269 271 273 273 273 274 276 277 278 278 278 277 277 277 277 277 278 278 278 279 280 281 282 283 284 286 287 288 289 290 291 291 292 292 292 292 293 294 295 296 298 298 298 299 300 301 303 304 305 306 307 309 310 310 309 308 307 306 303 301 299 296 295 295 296 298 300 301 302 304 304 304 302 300 299 297 295 293 290 287 285
264 267 269 270 271 271 271 271 272 274 275 276 277 277 277 277 276 277 277 277 278 278 279 280 281 282 283 284 286 287 288 288 289 289 290 290 290 291 291 291 292 294 296 297 298 298 299 300 302 304 306 308 310 312 315 317 318 317 316 315 313 311 308 305 302 300 297 295 296 299 301 301 302 303 304 304 303 301 299 297 294 292 290 287 287
265 268 270 272 272 272 271 272 272 273 273 274 274 275 275 275 276 276 277 278 279 280 281 282 282 283 284 285 286 287 287 287 287 288 288 289 289 290 291 292 293 294 296 297 297 298 300 302 303 305 308 310 312 315 316 317 317 317 315 314 313 311 310 309 309 308 306 303 301 302 304 303 302 301 302 303 303 301 298 295 293 291 289 288 288
270 274 275 274 273 272 272 272 272 272 272 273 273 274 275 276 277 278 278 279 280 280 281 282 282 283 284 285 285 285 285 286 287 288 289 289 290 290 291 292 293 293 294 294 296 298 300 301 304 306 308 310 312 314 314 314 313 313 312 311 311 311 312 312 311 311 311 309 306 304 303 302 301 299 300 302 303 302 298 294 292 291 291 290 290
276 278 276 273 271 271 271 271 271 272 272 273 273 274 275 276 276 277 278 278 279 279 280 281 282 282 283 283 284 285 286 287 288 289 289 289 289 289 290 291 291 290 290 292 294 296 298 301 304 306 308 309 310 310 310 309 309 309 309 310 311 312 312 311 310 310 309 309 307 305 303 302 300 299 299 303 306 306 302 298 295 293 293 293 293
276 276 274 272 271 270 270 270 270 270 270 271 272 273 273 274 275 275 276 277 277 277 278 279 281 281 282 283 285 286 287 288 288 287 287 286 286 287 288 288 287 286 287 289 292 294 297 301 304 305 307 307 307 306 305 305 305 306 308 309 311 312 312 311 311 310 309 307 306 305 303 301 299 298 298 301 304 305 304 302 300 298 297 296 296
272 271 271 271 271 270 269 269 269 269 269 270 270 271 272 272 273 274 275 276 276 278 279 281 282 283 284 285 287 287 287 286 285 284 283 283 284 285 285 284 282 282 284 287 290 293 297 300 303 305 305 305 304 303 303 303 304 305 306 307 309 310 311 311 311 311 310 309 307 305 302 300 298 297 297 298 299 300 300 301 301 300 299 298 298
272 270 270 270 269 269 268 268 269 270 271 271 271 272 273 273 274 275 276 277 279 281 282 284 285 286 286 287 288 287 286 285 283 282 282 283 283 282 281 280 280 282 284 287 291 294 297 300 302 303 302 302 302 302 302 303 304 305 305 306 307 308 309 309 309 310 309 309 309 307 305 302 299 296 295 294 294 295 296 297 297 297 297 297 296
273 272 272 271 270 269 269 270 271 272 271 271 271 273 275 276 277 278 280 281 283 285 286 286 286 287 287 287 286 286 284 283 282 281 282 282 281 280 280 281 282 285 288 291 294 296 298 300 301 301 301 301 301 302 303 304 305 305 305 306 306 306 306 306 306 307 307 308 308 308 307 305 302 298 295 292 291 291 292 292 292 292 292 292 292
272 272 272 271 269 269 269 270 272 272 273 274 275 276 277 279 280 282 284 285 286 286 287 287 286 286 286 285 284 283 282 281 281 281 281 281 281 282 284 285 287 289 292 294 296 297 299 300 301 301 301 301 302 303 305 305 306 305 305 305 305 305 304 304 303 303 304 305 305 306 306 305 302 299 295 292 290 290 289 289 289 289 290 292 293
270 270 269 269 268 269 271 273 275 277 279 281 282 282 282 283 284 284 285 285 285 285 286 286 285 285 284 283 282 281 280 280 280 280 280 281 283 285 287 289 291 292 294 296 297 298 299 300 300 300 301 302 303 305 306 306 305 304 304 303 303 302 302 301 301 301 301 302 302 302 302 301 299 297 294 291 290 289 289 289 290 291 292 293 294
Height
5780 5782 5783 5784 5785 5786 5788 5789 5789 5789 5790 5790 5790 5791 5791 5791 5791 5791 5791 5791 5790 5790 5790 5790 5789 5789 5790 5789 5789 5789 5789 5789 5789 5789 5789 5789 5789 5790 5790 5791 5791 5791 5790 5789 5789 5788 5787 5786 5785 5784 5783 5782 5780 5779 5777 5776 5774 5772 5770 5768 5765 5763 5760 5757 5755 5752 5749 5747 5744 5741 5738 5735 5732 5729 5726 5722 5719 5716 5712 5709 5706 5702 5698 5694 5690
5778 5779 5781 5782 5783 5784 5785 5786 5787 5787 5787 5788 5788 5788 5789 5789 5789 5789 5788 5788 5788 5787 5787 5787 5787 5787 5787 5787 5787 5786 5786 5787 5787 5787 5787 5787 5788 5788 5789 5789 5789 5788 5787 5787 5786 5785 5785 5784 5783 5782 5780 5779 5778 5776 5774 5773 5771 5769 5767 5765 5763 5760 5757 5755 5752 5749 5746 5744 5741 5738 5736 5733 5729 5726 5723 5719 5716 5713 5709 5706 5702 5699 5695 5691 5687
5774 5776 5778 5779 5780 5782 5783 5784 5784 5784 5785 5785 5785 5786 5786 5786 5786 5786 5786 5785 5785 5785 5785 5785 5785 5784 5784 5784 5784 5784 5784 5784 5785 5785 5785 5785 5786 5787 5787 5787 5786 5785 5785 5784 5783 5783 5782 5781 5780 5779 5777 5776 5775 5773 5771 5770 5768 5766 5763 5761 5759 5757 5754 5752 5749 5746 5743 5741 5738 5736 5733 5730 5726 5723 5719 5716 5713 5711 5707 5703 5699 5695 5692 5688 5683
5771 5773 5775 5776 5777 5779 5780 5781 5781 5782 5783 5783 5783 5783 5784 5783 5783 5783 5783 5783 5783 5783 5783 5782 5782 5782 5782 5781 5781 5782 5782 5782 5783 5783 5783 5784 5784 5784 5784 5784 5783 5783 5782 5781 5781 5780 5779 5778 5777 5775 5774 5773 5772 5770 5768 5766 5764 5762 5760 5758 5756 5753 5751 5748 5745 5742 5740 5737 5735 5732 5729 5726 5723 5720 5716 5712 5709 5707 5704 5700 5696 5691 5687 5684 5679
5769 5771 5772 5773 5775 5776 5778 5778 5779 5780 5780 5780 5780 5781 5781 5781 5780 5780 5781 5781 5780 5780 5780 5780 5779 5779 5779 5779 5779 5779 5780 5780 5780 5780 5781 5781 5782 5782 5781 5781 5780 5780 5779 5778 5778 5777 5776 5775 5773 5772 5770 5769 5768 5767 5764 5762 5761 5758 5756 5754 5752 5750 5747 5745 5742 5739 5736 5733 5731 5729 5726 5723 5720 5717 5713 5710 5705 5702 5699 5697 5693 5688 5682 5677 5674
5766 5768 5769 5771 5772 5773 5775 5776 5776 5777 5778 5778 5778 5778 5778 5778 5778 5778 5778 5778 5778 5778 5778 5777 5777 5776 5776 5777 5777 5777 5778 5778 5778 5778 5778 5779 5779 5779 5778 5778 5777 5777 5776 5775 5774 5773 5772 5771 5769 5768 5767 5766 5765 5763 5760 5758 5757 5754 5752 5750 5748 5746 5744 5741 5738 5736 5733 5730 5728 5725 5722 5719 5716 5713 5710 5707 5704 5699 5695 5691 5688 5685 5679 5673 5669
5763 5765 5766 5768 5769 5770 5772 5773 5773 5774 5775 5775 5775 5775 5775 5776 5776 5776 5776 5776 5776 5775 5775 5775 5774 5774 5774 5774 5775 5775 5775 5775 5775 5775 5776 5776 5776 5776 5775 5775 5774 5773 5772 5772 5771 5770 5768 5767 5766 5764 5763 5762 5760 5759 5756 5754 5752 5750 5748 5746 5744 5742 5740 5737 5735 5732 5729 5727 5724 5721 5719 5716 5713 5709 5706 5704 5701 5697 5693 5689 5684 5681 5677 5672 5667
5760 5762 5763 5765 5766 5767 5769 5770 5771 5771 5772 5773 5773 5772 5773 5773 5773 5773 5773 5773 5773 5773 5773 5772 5772 5772 5772 5772 5772 5772 5772 5772 5772 5773 5773 5774 5774 5773 5772 5771 5771 5770 5769 5769 5768 5766 5764 5763 5762 5761 5759 5758 5756 5754 5752 5750 5748 5746 5744 5742 5740 5738 5736 5733 5731 5729 5726 5723 5720 5718 5715 5712 5709 5706 5703 5700 5696 5693 5690 5687 5682 5677 5673 5670 5666
5757 5759 5760 5761 5763 5764 5765 5766 5768 5768 5769 5770 5770 5770 5770 5770 5770 5771 5771 5771 5770 5770 5770 5770 5770 5770 5769 5769 5770 5770 5770 5770 5770 5770 5771 5771 5770 5770 5769 5768 5767 5767 5766 5765 5764 5762 5760 5759 5758 5756 5755 5753 5752 5750 5748 5746 5744 5742 5740 5738 5736 5734 5731 5729 5727 5724 5722 5719 5716 5714 5711 5708 5705 5702 5699 5696 5693 5689 5686 5682 5679 5674 5670 5667 5663
5754 5755 5757 5758 5759 5761 5762 5764 5765 5766 5766 5766 5767 5767 5767 5768 5768 5768 5768 5768 5768 5768 5768 5768 5768 5767 5767 5767 5767 5767 5767 5768 5767 5767 5767 5767 5767 5766 5765 5765 5764 5763 5763 5762 5760 5758 5756 5755 5753 5752 5750 5748 5747 5746 5744 5742 5740 5738 5736 5733 5731 5729 5727 5724 5722 5720 5718 5715 5712 5709 5707 5704 5701 5699 5696 5692 5689 5686 5683 5679 5675 5671 5667 5664 5660
5751 5752 5753 5755 5756 5758 5759 5761 5762 5763 5763 5763 5764 5764 5765 5765 5765 5765 5766 5765 5765 5765 5766 5766 5765 5765 5765 5765 5765 5765 5765 5765 5764 5764 5764 5764 5763 5763 5762 5761 5760 5760 5759 5757 5756 5754 5752 5750 5748 5747 5745 5743 5742 5741 5739 5737 5736 5734 5731 5728 5726 5724 5721 5719 5718 5716 5713 5711 5708 5705 5703 5700 5698 5695 5692 5688 5685 5682 5679 5676 5672 5668 5665 5661 5658
5747 5749 5750 5751 5753 5755 5757 5758 5759 5759 5760 5760 5761 5762 5762 5762 5762 5763 5763 5763 5763 5763 5763 5763 5763 5763 5763 5763 5762 5762 5762 5761 5761 5761 5761 5760 5760 5759 5758 5757 5757 5756 5754 5753 5751 5749 5747 5745 5744 5742 5740 5738 5737 5736 5734 5732 5731 5729 5726 5724 5721 5718 5716 5714 5713 5711 5709 5707 5704 5702 5699 5696 5694 5691 5688 5684 5681 5678 5675 5671 5668 5665 5661 5658 5655
5744 5745 5746 5748 5750 5752 5754 5754 5755 5756 5757 5757 5758 5759 5760 5760 5760 5760 5760 5760 5760 5761 5761 5761 5760 5760 5760 5760 5760 5759 5759 5758 5758 5758 5757 5757 5756 5755 5754 5754 5753 5752 5750 5749 5747 5745 5743 5741 5739 5738 5736 5734 5732 5730 5729 5728 5726 5724 5722 5720 5717 5713 5711 5710 5709 5707 5705 5702 5700 5698 5695 5692 5690 5687 5684 5681 5678 5675 5671 5668 5664 5660 5657 5654 5651
5740 5742 5743 5745 5748 5749 5750 5751 5752 5752 5753 5754 5755 5756 5757 5757 5757 5757 5758 5758 5758 5758 5758 5758 5758 5758 5758 5758 5757 5756 5756 5755 5755 5754 5754 5753 5753 5752 5751 5750 5750 5748 5747 5745 5743 5741 5739 5736 5735 5733 5732 5730 5727 5724 5723 5722 5721 5720 5718 5715 5712 5709 5707 5706 5704 5702 5700 5698 5696 5694 5691 5688 5686 5683 5680 5677 5674 5671 5668 5665 5661 5657 5653 5650 5647
5736 5738 5740 5742 5745 5746 5747 5748 5748 5749 5750 5751 5752 5753 5754 5754 5754 5755 5755 5756 5756 5756 5756 5756 5755 5755 5755 5755 5754 5753 5753 5752 5752 5751 5750 5750 5749 5748 5747 5746 5745 5744 5743 5741 5739 5737 5735 5732 5730 5729 5727 5725 5722 5719 5718 5717 5716 5715 5713 5710 5708 5705 5703 5702 5700 5698 5696 5694 5692 5689 5687 5684 5682 5679 5676 5673 5671 5668 5665 5662 5659 5654 5650 5646 5643
5733 5735 5737 5739 5741 5743 5744 5744 5745 5745 5746 5748 5749 5750 5751 5751 5752 5752 5753 5753 5753 5753 5753 5753 5752 5752 5751 5751 5751 5750 5750 5749 5748 5747 5746 5746 5745 5745 5744 5742 5741 5740 5738 5737 5735 5733 5731 5728 5727 5725 5723 5720 5717 5715 5714 5713 5711 5710 5708 5705 5703 5701 5699 5698 5696 5694 5691 5689 5687 5685 5682 5680 5678 5675 5672 5670 5667 5664 5661 5659 5656 5652 5648 5643 5640
5730 5732 5734 5736 5738 5739 5740 5741 5741 5742 5743 5744 5745 5747 5747 5748 5749 5750 5750 5750 5750 5750 5749 5749 5749 5748 5748 5747 5747 5746 5746 5746 5745 5743 5742 5742 5742 5741 5740 5739 5737 5736 5734 5733 5731 5729 5727 5724 5723 5721 5718 5715 5713 5711 5710 5709 5707 5705 5703 5700 5698 5697 5695 5693 5691 5689 5687 5685 5683 5680 5678 5676 5673 5671 5668 5666 5663 5660 5657 5654 5651 5648 5645 5641 5637
5728 5729 5731 5733 5734 5735 5736 5737 5738 5739 5740 5741 5742 5744 5744 5745 5746 5747 5747 5747 5746 5746 5746 5746 5745 5745 5744 5743 5743 5743 5742 5742 5741 5739 5739 5739 5738 5737 5736 5735 5733 5732 5731 5729 5727 5725 5723 5720 5718 5717 5714 5712 5709 5708 5706 5704 5702 5700 5698 5695 5694 5692 5690 5689 5687 5684 5682 5680 5678 5676 5674 5671 5669 5667 5664 5662 5659 5656 5653 5650 5647 5644 5641 5638 5634
5725 5726 5728 5729 5730 5731 5733 5734 5735 5737 5738 5739 5739 5741 5742 5742 5743 5744 5744 5743 5743 5743 5742 5742 5742 5741 5740 5739 5739 5739 5739 5738 5737 5735 5735 5735 5734 5733 5732 5731 5729 5728 5726 5725 5723 5721 5718 5716 5713 5712 5710 5708 5706 5704 5702 5700 5697 5695 5693 5691 5690 5688 5686 5684 5682 5680 5678 5676 5674 5672 5669 5667 5665 5663 5660 5658 5655 5652 5649 5646 5643 5640 5637 5633 5631
5721 5723 5724 5725 5726 5728 5729 5731 5733 5734 5734 5735 5735 5736 5738 5739 5740 5740 5740 5740 5739 5739 5738 5738 5737 5737 5736 5735 5735 5735 5735 5734 5733 5732 5731 5730 5730 5729 5728 5726 5725 5723 5722 5721 5719 5716 5714 5711 5709 5707 5705 5703 5702 5700 5698 5696 5693 5691 5689 5687 5686 5684 5681 5679 5677 5675 5674 5672 5670 5668 5665 5663 5661 5659 5656 5654 5651 5648 5645 5642 5640 5637 5634 5630 5626
5717 5719 5720 5721 5723 5725 5726 5728 5729 5730 5730 5731 5731 5732 5734 5735 5735 5736 5736 5735 5735 5734 5734 5733 5733 5733 5732 5732 5731 5731 5731 5730 5729 5728 5727 5726 5725 5724 5723 5722 5720 5718 5718 5717 5714 5711 5709 5706 5704 5703 5701 5699 5697 5695 5693 5691 5689 5687 5685 5683 5681 5679 5677 5675 5674 5672 5670 5668 5666 5663 5661 5659 5657 5654 5652 5649 5646 5643 5640 5638 5636 5633 5630 5627 5623
5713 5715 5716 5718 5720 5722 5722 5723 5725 5726 5727 5727 5728 5729 5730 5731 5731 5732 5731 5731 5730 5730 5729 5729 5729 5729 5728 5728 5727 5727 5727 5726 5725 5724 5723 5722 5720 5719 5717 5716 5715 5713 5713 5712 5710 5707 5704 5702 5700 5699 5696 5695 5693 5691 5689 5687 5685 5682 5680 5679 5677 5675 5673 5672 5670 5668 5666 5663 5661 5659 5657 5655 5652 5649 5647 5644 5641 5638 5635 5633 5631 5629 5626 5623 5620
5709 5711 5714 5716 5718 5719 5719 5719 5721 5722 5723 5723 5724 5725 5726 5726 5727 5727 5727 5726 5726 5725 5725 5725 5725 5724 5724 5723 5723 5723 5722 5721 5721 5720 5718 5716 5715 5713 5712 5711 5710 5709 5708 5706 5704 5702 5700 5698 5697 5695 5692 5690 5688 5686 5684 5682 5680 5678 5677 5675 5673 5671 5670 5668 5666 5664 5661 5659 5657 5654 5652 5650 5647 5645 5642 5639 5636 5633 5631 5628 5626 5624 5621 5619 5616
5705 5708 5711 5713 5715 5715 5715 5716 5717 5718 5719 5719 5720 5721 5722 5722 5723 5723 5723 5722 5722 5721 5721 5720 5720 5720 5720 5719 5719 5718 5718 5717 5716 5715 5713 5711 5710 5709 5708 5706 5705 5704 5702 5701 5699 5697 5695 5694 5692 5690 5688 5686 5684 5682 5680 5678 5676 5675 5673 5672 5670 5668 5666 5664 5662 5659 5656 5654 5651 5649 5647 5645 5643 5640 5637 5634 5632 5629 5626 5624 5621 5619 5616 5614 5612
5702 5705 5708 5710 5711 5711 5711 5712 5713 5714 5715 5715 5716 5717 5718 5718 5719 5719 5719 5718 5718 5717 5716 5716 5716 5716 5715 5715 5714 5713 5713 5712 5711 5709 5707 5705 5705 5704 5703 5702 5700 5698 5697 5696 5694 5692 5691 5689 5687 5685 5682 5681 5679 5678 5675 5674 5672 5671 5669 5667 5665 5663 5661 5659 5657 5654 5651 5649 5647 5644 5642 5640 5638 5636 5633 5630 5628 5625 5622 5620 5617 5614 5612 5610 5608
5699 5702 5704 5706 5707 5707 5707 5708 5709 5710 5711 5712 5712 5713 5714 5714 5715 5715 5714 5714 5713 5713 5712 5712 5712 5712 5711 5710 5709 5708 5708 5707 5705 5703 5701 5701 5700 5699 5699 5697 5695 5694 5692 5690 5688 5687 5686 5684 5682 5680 5678 5676 5675 5673 5671 5670 5668 5667 5665 5663 5661 5659 5657 5655 5652 5650 5647 5644 5642 5640 5637 5635 5633 5631 5629 5626 5624 5621 5619 5616 5613 5610 5608 5606 5604
5696 5699 5701 5702 5704 5704 5704 5705 5706 5706 5707 5708 5709 5710 5710 5711 5711 5711 5710 5710 5709 5709 5708 5708 5708 5708 5707 5705 5704 5703 5703 5701 5699 5697 5696 5696 5696 5695 5694 5693 5691 5689 5687 5686 5684 5683 5682 5680 5677 5675 5673 5671 5670 5669 5667 5666 5664 5662 5661 5659 5657 5655 5653 5651 5648 5645 5642 5640 5638 5636 5633 5631 5629 5627 5624 5622 5620 5617 5615 5612 5610 5607 5604 5602 5601
5693 5695 5697 5699 5700 5701 5702 5702 5703 5704 5704 5705 5706 5707 5707 5707 5707 5707 5706 5706 5705 5705 5705 5704 5704 5703 5702 5701 5700 5699 5697 5696 5694 5692 5691 5691 5691 5691 5690 5688 5687 5685 5683 5681 5680 5679 5678 5676 5673 5670 5668 5667 5666 5664 5662 5661 5659 5658 5656 5654 5652 5650 5648 5646 5644 5641 5638 5636 5634 5632 5629 5627 5625 5622 5620 5618 5615 5613 5611 5608 5606 5603 5601 5599 5597
5689 5691 5693 5695 5696 5698 5698 5699 5700 5701 5702 5702 5703 5703 5704 5704 5703 5703 5702 5702 5701 5701 5700 5700 5699 5698 5697 5696 5695 5693 5692 5690 5689 5687 5686 5686 5686 5686 5684 5683 5682 5680 5679 5677 5676 5675 5673 5671 5668 5666 5664 5663 5661 5659 5658 5656 5654 5653 5652 5649 5648 5646 5644 5641 5639 5636 5634 5632 5630 5627 5625 5622 5620 5618 5615 5613 5611 5609 5607 5604 5602 5599 5597 5595 5593
5685 5688 5690 5691 5692 5694 5695 5696 5697 5698 5698 5699 5699 5700 5700 5700 5700 5699 5698 5697 5697 5696 5695 5694 5693 5693 5692 5691 5690 5688 5687 5685 5684 5683 5682 5681 5681 5680 5679 5678 5677 5675 5674 5672 5671 5670 5668 5666 5664 5662 5660 5658 5657 5655 5653 5651 5650 5648 5647 5645 5643 5641 5639 5636 5634 5631 5629 5627 5625 5622 5620 5618 5616 5613 5611 5608 5606 5604 5602 5600 5597 5595 5593 5591 5589
5682 5684 5686 5688 5689 5691 5692 5693 5694 5694 5695 5695 5696 5696 5696 5696 5696 5695 5694 5693 5692 5691 5690 5689 5689 5688 5687 5686 5685 5683 5682 5680 5679 5678 5678 5677 5676 5675 5674 5673 5672 5670 5669 5667 5666 5664 5663 5661 5659 5658 5656 5654 5652 5650 5649 5647 5646 5644 5642 5640 5638 5636 5634 5631 5629 5626 5624 5622 5620 5618 5615 5613 5611 5608 5606 5604 5602 5600 5597 5595 5593 5590 5588 5586 5584
5679 5681 5683 5685 5686 5688 5689 5690 5690 5691 5691 5691 5691 5691 5691 5691 5690 5690 5689 5688 5687 5686 5685 5685 5684 5683 5682 5681 5679 5678 5677 5675 5674 5673 5673 5672 5671 5670 5669 5668 5667 5665 5664 5662 5661 5659 5658 5656 5655 5653 5652 5650 5648 5646 5644 5643 5641 5639 5637 5635 5633 5631 5629 5626 5624 5622 5620 5617 5615 5613 5610 5608 5606 5603 5601 5599 5597 5595 5593 5590 5588 5585 5583 5581 5580
5676 5678 5680 5682 5683 5685 5686 5686 5687 5687 5687 5687 5687 5687 5687 5686 5686 5685 5684 5683 5682 5682 5681 5679 5679 5678 5677 5676 5675 5673 5672 5671 5669 5668 5668 5667 5666 5665 5664 5663 5661 5660 5659 5657 5656 5654 5653 5652 5650 5649 5647 5645 5643 5642 5640 5638 5636 5634 5632 5630 5628 5625 5623 5620 5618 5616 5614 5612 5610 5608 5605 5603 5601 5598 5596 5594 5593 5591 5588 5586 5583 5581 5579 5577 5575
5673 5675 5677 5679 5680 5681 5682 5683 5683 5683 5683 5683 5683 5683 5682 5681 5681 5680 5679 5678 5677 5676 5675 5675 5674 5673 5672 5671 5670 5669 5668 5666 5665 5664 5663 5662 5661 5660 5659 5658 5657 5655 5654 5653 5651 5650 5648 5647 5646 5644 5642 5641 5639 5637 5635 5633 5631 5629 5627 5625 5622 5620 5617 5615 5613 5611 5609 5607 5605 5602 5600 5598 5596 5593 5591 5590 5588 5586 5583 5581 5579 5576 5574 5573 5571
5671 5673 5675 5676 5677 5678 5678 5679 5679 5679 5679 5679 5679 5678 5677 5676 5675 5674 5673 5673 5672 5671 5671 5670 5669 5668 5667 5666 5665 5664 5663 5662 5661 5660 5658 5657 5656 5655 5654 5653 5652 5651 5650 5648 5647 5645 5644 5643 5641 5639 5638 5636 5634 5632 5630 5628 5625 5623 5621 5619 5616 5614 5611 5609 5607 5605 5603 5601 5599 5597 5595 5592 5590 5588 5587 5585 5583 5581 5579 5576 5574 5572 5570 5568 5567
5668 5670 5671 5672 5673 5674 5674 5675 5675 5675 5674 5674 5674 5673 5672 5671 5669 5669 5668 5667 5667 5666 5666 5665 5664 5663 5663 5662 5660 5659 5658 5657 5656 5655 5654 5653 5652 5651 5650 5649 5648 5647 5645 5644 5642 5641 5639 5638 5636 5635 5633 5631 5629 5627 5624 5622 5619 5617 5615 5612 5610 5608 5606 5604 5602 5600 5598 5597 5595 5592 5590 5588 5586 5584 5582 5580 5578 5576 5574 5572 5570 5568 5566 5564 5563
5664 5666 5667 5668 5669 5669 5670 5670 5670 5669 5669 5668 5668 5667 5666 5665 5664 5664 5663 5662 5662 5662 5661 5661 5660 5659 5658 5657 5656 5655 5654 5653 5652 5650 5649 5648 5648 5646 5646 5645 5644 5642 5640 5639 5638 5636 5634 5633 5631 5630 5628 5626 5624 5621 5619 5616 5613 5611 5609 5607 5605 5603 5600 5598 5596 5595 5593 5592 5590 5588 5586 5583 5581 5579 5577 5576 5574 5572 5570 5568 5566 5563 5561 5560 5559
5660 5661 5662 5663 5664 5664 5664 5664 5664 5663 5663 5663 5663 5663 5662 5661 5660 5660 5659 5658 5658 5657 5657 5656 5655 5654 5653 5652 5651 5651 5649 5648 5647 5646 5645 5644 5643 5642 5641 5640 5638 5637 5635 5634 5632 5631 5629 5627 5626 5624 5622 5620 5618 5615 5613 5611 5608 5606 5604 5602 5600 5598 5596 5594 5592 5590 5589 5587 5585 5583 5581 5579 5576 5574 5572 5570 5569 5567 5565 5563 5561 5559 5557 5556 5555
5656 5657 5657 5658 5658 5658 5658 5658 5658 5658 5658 5657 5657 5657 5657 5657 5656 5655 5655 5654 5653 5652 5651 5651 5650 5649 5648 5647 5647 5646 5645 5644 5643 5642 5641 5640 5638 5637 5636 5634 5633 5632 5630 5628 5627 5626 5624 5622 5621 5619 5617 5615 5612 5610 5608 5605 5603 5601 5599 5597 5595 5593 5591 5590 5587 5586 5584 5582 5580 5578 5576 5574 5571 5569 5567 5565 5564 5562 5560 5559 5557 5555 5553 5551 5550
5652 5652 5653 5653 5653 5653 5653 5653 5653 5653 5653 5652 5652 5652 5652 5651 5651 5650 5650 5649 5648 5647 5646 5646 5645 5644 5644 5643 5642 5641 5640 5639 5638 5637 5636 5635 5634 5633 5631 5629 5628 5626 5625 5624 5622 5621 5619 5618 5616 5614 5612 5610 5608 5605 5603 5601 5598 5596 5594 5592 5590 5589 5587 5585 5583 5581 5579 5577 5575 5573 5571 5569 5567 5564 5562 5561 5559 5557 5556 5554 5552 5550 5549 5547 5546
5647 5648 5648 5648 5648 5649 5649 5648 5648 5648 5648 5648 5647 5647 5647 5646 5645 5645 5644 5643 5643 5642 5642 5641 5640 5640 5639 5638 5637 5636 5635 5634 5633 5632 5631 5630 5629 5628 5626 5624 5623 5621 5620 5619 5618 5616 5615 5613 5611 5609 5607 5605 5603 5601 5599 5596 5594 5592 5590 5588 5586 5584 5582 5580 5578 5576 5574 5572 5570 5568 5566 5564 5562 5560 5558 5556 5554 5552 5551 5549 5548 5546 5545 5544 5542
5643 5643 5643 5644 5644 5644 5644 5644 5643 5643 5643 5643 5642 5642 5642 5641 5640 5640 5639 5639 5638 5638 5637 5636 5635 5635 5634 5633 5632 5631 5631 5630 5629 5628 5627 5626 5624 5623 5621 5620 5618 5617 5616 5615 5613 5612 5610 5608 5607 5605 5603 5601 5599 5597 5595 5593 5590 5588 5586 5583 5581 5579 5578 5576 5574 5571 5569 5567 5565 5563 5561 5559 5557 5555 5553 5552 5550 5548 5546 5545 5543 5542 5541 5540 5539
5639 5639 5639 5639 5639 5639 5639 5639 5638 5638 5637 5637 5637 5636 5636 5636 5635 5635 5635 5634 5634 5633 5632 5631 5630 5630 5629 5628 5628 5627 5626 5625 5624 5623 5622 5621 5619 5618 5617 5615 5614 5612 5611 5610 5609 5608 5606 5605 5603 5601 5600 5597 5595 5593 5591 5589 5586 5584 5582 5580 5578 5576 5574 5571 5569 5567 5564 5562 5560 5558 5556 5555 5553 5551 5549 5547 5545 5543 5542 5540 5539 5538 5537 5536 5535
5634 5634 5634 5634 5633 5633 5633 5633 5632 5632 5632 5631 5631 5631 5631 5631 5631 5630 5630 5629 5629 5628 5627 5626 5625 5625 5624 5624 5623 5622 5621 5620 5619 5618 5617 5615 5614 5613 5612 5611 5610 5608 5607 5606 5605 5604 5602 5601 5599 5597 5595 5593 5591 5589 5587 5585 5583 5581 5579 5576 5574 5572 5569 5567 5564 5562 5560 5558 5556 5554 5552 5550 5548 5547 5545 5543 5541 5539 5537 5536 5535 5534 5533 5532 5531
5628 5628 5628 5628 5627 5627 5627 5627 5627 5627 5626 5626 5626 5627 5627 5627 5626 5626 5625 5624 5624 5623 5622 5622 5621 5620 5620 5619 5618 5617 5616 5615 5614 5612 5611 5610 5609 5608 5608 5607 5606 5605 5603 5602 5601 5600 5599 5597 5595 5593 5591 5589 5587 5585 5583 5581 5579 5577 5575 5572 5570 5567 5565 5562 5560 5558 5556 5553 5551 5549 5548 5546 5544 5543 5541 5539 5537 5535 5533 5532 5531 5530 5529 5528 5527
5622 5622 5622 5622 5622 5622 5622 5622 5622 5622 5622 5622 5622 5622 5622 5622 5622 5621 5621 5620 5620 5619 5618 5618 5617 5616 5615 5614 5613 5612 5611 5610 5609 5607 5606 5605 5605 5604 5603 5603 5602 5601 5599 5598 5597 5596 5594 5592 5590 5589 5587 5585 5583 5581 5579 5577 5575 5573 5571 5568 5566 5563 5561 5558 5556 5554 5551 5549 5547 5545 5543 5542 5540 5538 5537 5535 5533 5531 5530 5529 5528 5527 5526 5525 5524
5616 5616 5617 5617 5618 5618 5618 5617 5617 5617 5617 5618 5618 5618 5618 5618 5617 5617 5616 5616 5615 5615 5614 5614 5613 5611 5610 5609 5608 5607 5606 5605 5604 5603 5602 5601 5600 5600 5599 5599 5598 5597 5596 5595 5593 5591 5590 5588 5586 5584 5582 5580 5579 5577 5575 5573 5570 5568 5566 5564 5562 5559 5557 5554 5552 5549 5547 5545 5543 5541 5539 5537 5536 5534 5532 5531 5529 5528 5527 5525 5524 5523 5522 5521 5520
5612 5612 5612 5613 5613 5613 5613 5613 5613 5613 5613 5613 5614 5614 5614 5613 5613 5612 5612 5611 5611 5610 5609 5609 5607 5606 5605 5604 5603 5602 5601 5601 5600 5599 5598 5597 5596 5596 5595 5595 5594 5593 5592 5590 5589 5587 5586 5584 5582 5580 5578 5576 5574 5572 5570 5568 5566 5564 5561 5559 5557 5555 5552 5550 5548 5545 5543 5541 5539 5537 5535 5533 5531 5530 5528 5527 5525 5524 5523 5522 5520 5519 5518 5517 5516
5608 5608 5609 5609 5609 5609 5609 5609 5609 5609 5609 5609 5610 5610 5609 5609 5608 5607 5607 5606 5606 5605 5604 5603 5602 5601 5600 5599 5598 5597 5597 5596 5596 5595 5594 5593 5592 5591 5591 5590 5589 5588 5587 5586 5584 5583 5581 5579 5577 5575 5573 5571 5569 5567 5565 5563 5561 5559 5556 5554 5552 5550 5548 5546 5543 5541 5539 5537 5534 5532 5530 5529 5527 5525 5524 5522 5521 5520 5518 5517 5516 5515 5514 5513 5512
5604 5605 5605 5605 5605 5605 5605 5605 5605 5605 5605 5605 5606 5605 5605 5604 5603 5603 5602 5602 5601 5600 5599 5598 5597 5596 5595 5595 5594 5593 5593 5592 5592 5591 5590 5589 5588 5587 5586 5585 5584 5583 5582 5581 5579 5578 5576 5574 5572 5570 5568 5566 5564 5562 5560 5558 5556 5553 5551 5549 5547 5545 5543 5541 5538 5536 5534 5532 5530 5528 5526 5524 5523 5521 5519 5518 5517 5515 5514 5513 5512 5511 5510 5509 5508
5601 5601 5601 5601 5601 5601 5601 5601 5601 5601 5601 5601 5601 5601 5600 5600 5599 5599 5598 5597 5596 5596 5595 5594 5593 5592 5591 5590 5590 5589 5589 5588 5588 5587 5586 5585 5584 5583 5581 5580 5579 5578 5577 5576 5574 5572 5571 5569 5567 5565 5563 5561 5559 5557 5555 5552 5550 5548 5546 5544 5542 5540 5537 5535 5533 5531 5529 5527 5526 5524 5522 5520 5519 5517 5516 5514 5513 5511 5510 5509 5508 5507 5506 5505 5504